sat.trackr.live / text

‹ back to catalog

QIANFAN-2

NORAD 60380 · 2024-140B

PAYLOAD ACTIVE UNKNOWN

§ Identity

Operator
Country
PRC
Launch date
2024-08-06
Launch site
TAISC
Launch vehicle
Mass (kg)
RCS (m²)

External: N2YO · Heavens-Above · Gunter

§ Orbital elements

Epoch: 2026-05-25T04:18:24.501600Z

Period
106.59 min
Inclination
88.9700°
Eccentricity
0.0014625
Mean motion
13.51005825 rev/d
Perigee alt
1,057.7 km
Apogee alt
1,079.5 km
Semi-major
7,446.7 km
B*
1.1303e-4
RAAN
282.1344°
Arg perigee
79.3348°
Mean anomaly
280.9449°
Rev number
8,947

§ Raw data

QIANFAN-21 60380U 24140B   26145.17945025  .00000085  00000+0  11303-3 0  99922 60380  88.9700 282.1344 0014625  79.3348 280.9449 13.51005825 89471

JSON: /api/v1/satellites/60380 · /tle

For live sub-satellite position, see the globe view (requires WebGL).

§ Visibility from observer

Set your observer location to see the next 7 days of passes ≥ 10°. The values pass through the URL so the page stays shareable.

No JS? Fill the form by hand. The geolocation button needs JavaScript.